Regional Weather Roundup
Issued by NWS

Home | Current Version | Previous Version | Text Only | Print | Product List | Glossary Off
Versions: 1 2 3 4 5 6 7 8 9 10 11 12 13 14 15 16 17 18 19 20 21 22 23 24 25 26 27

000
ASUS45 KCYS 240710
RWRWY

WYOMING REGIONAL WEATHER ROUNDUP
NATIONAL WEATHER SERVICE CHEYENNE WY
100 AM MDT SAT JUN 24 2017

NOTE:  "FAIR" INDICATES FEW OR NO CLOUDS BELOW 12,000 FEET
WITH NO SIGNIFICANT WEATHER AND/OR OBSTRUCTIONS TO VISIBILITY.

WYZ001-240800-
YELLOWSTONE NATIONAL PARK

CITY           SKY/WX    TMP DP  RH WIND       PRES   REMARKS
LK YELLOWSTONE   N/A     35  28  75 CALM      30.41R
W YELLOWSTONE  NOT AVBL

$$
WYZ002>013-054>058-071-098>099-240800-
NORTHERN WYOMING

CITY           SKY/WX    TMP DP  RH WIND       PRES   REMARKS
JACKSON        FAIR      43  36  75 CALM      30.33R
CODY           FAIR      47  32  56 S5        30.35S
GREYBULL       FAIR      56  30  37 NW5       30.27R
WORLAND        FAIR      50  32  50 E5        30.28R
SHERIDAN       FAIR      44  37  76 S6        30.30S
BUFFALO        MOCLDY    49  34  56 W7        30.34S
GILLETTE       FAIR      39  34  82 CALM      30.30S
NEWCASTLE      FAIR      43  30  61 N6        30.30S

$$
WYZ014>020-022>026-101>103-240800-
CENTRAL WYOMING

CITY           SKY/WX    TMP DP  RH WIND       PRES   REMARKS
BIG PINEY      FAIR      41  25  53 N10       30.35R
PINEDALE       FAIR      43  32  65 NW9       30.35S
DUBOIS         FAIR      43  28  56 CALM      30.38S
LANDER         FAIR      51  31  46 W10       30.33R
RIVERTON       FAIR      52  31  44 E7        30.34R
CASPER         FAIR      42  32  67 NE7       30.34S
DOUGLAS        FAIR      46  35  65 CALM      30.35R

$$
WYZ021-027>030-104>119-240800-
SOUTHERN WYOMING

CITY           SKY/WX    TMP DP  RH WIND       PRES   REMARKS
EVANSTON       FAIR      55  34  45 N5        30.35R
KEMMERER         N/A     46  28  49 N12       30.35S
FORT BRIDGER   FAIR      53  28  38 W9        30.36S
ROCK SPRINGS   FAIR      52  28  39 NE9       30.33R
DIXON          FAIR      51  32  49 CALM      30.28R
RAWLINS        FAIR      51  28  41 NE21G30   30.33R
SARATOGA       FAIR      52  37  58 SE12      30.30S
LARAMIE        FAIR      46  39  76 E8        30.36F
CHEYENNE       CLOUDY    53  37  54 NE3       30.36S
TORRINGTON     CLOUDY    53  34  48 NW3       30.30R
PINE BLUFFS    PTSUNNY   50  43  76 CALM      30.34S

$$




USA.gov is the U.S. government's official web portal to all federal, state and local government web resources and services.